Location: Ravensburg
(47.7866°N, 9.6124°E)
Time: 09:42:18
(UTC+02:00)

YUBILEINY - Pass Details

Date: 17 March 2026
Orbit: 1477 x 1509 km, 82.5° (Epoch: 17 April)

Event Time Altitude Azimuth Distance (km) Brightness Sun altitude
Rises 02:15:18 0° 352° (N) 4,623 ? -38.3°
Reaches altitude 10° 02:18:30 10° 0° (N) 3,636 ? -38.0°
Maximum altitude 02:26:33 39° 67° (ENE) 2,084 ? -37.2°
Drops below altitude 10° 02:34:31 10° 135° (SE) 3,609 ? -36.4°
Sets 02:37:39 0° 143° (SE) 4,585 ? -36.0°
